Meteo pe oră la Dziewiatka

Astăzi, 24 Februarie, Miercuri

Timp Temperatura Precipitaţii Vânt Presiune Umiditate
00:00 +7°C° 0 mm 3 m/s 762 mmHg 82%
01:00 +7°C° 0 mm 3 m/s 762 mmHg 85%
02:00 +7°C° 0 mm 3 m/s 762 mmHg 87%
03:00 +5°C° 0 mm 3 m/s 762 mmHg 88%
04:00 +5°C° 0 mm 3 m/s 762 mmHg 89%
05:00 +5°C° 0 mm 3 m/s 762 mmHg 89%
06:00 +5°C° 0 mm 3 m/s 762 mmHg 90%
07:00 +5°C° 0 mm 3 m/s 762 mmHg 89%
08:00 +7°C° 0 mm 3 m/s 762 mmHg 85%
09:00 +8°C° 0 mm 3 m/s 762 mmHg 80%
10:00 +10°C° 0 mm 3 m/s 762 mmHg 76%
11:00 +11°C° 0 mm 3 m/s 762 mmHg 72%
12:00 +12°C° 0 mm 3 m/s 762 mmHg 68%
13:00 +13°C° 0 mm 3 m/s 761 mmHg 64%
14:00 +13°C° 0 mm 3 m/s 761 mmHg 65%
15:00 +13°C° 0 mm 3 m/s 761 mmHg 67%
16:00 +13°C° 0 mm 3 m/s 761 mmHg 68%
17:00 +12°C° 0 mm 3 m/s 760 mmHg 71%
18:00 +11°C° 0 mm 3 m/s 760 mmHg 74%
19:00 +10°C° 0 mm 3 m/s 760 mmHg 76%
20:00 +10°C° 0 mm 3 m/s 760 mmHg 77%
21:00 +9°C° 0 mm 3 m/s 760 mmHg 77%
22:00 +9°C° 0 mm 3 m/s 760 mmHg 78%
23:00 +8°C° 0 mm 3 m/s 760 mmHg 79%

Mâine, 25 Februarie, Joi

Timp Temperatura Precipitaţii Vânt Presiune Umiditate
00:00 +8°C° 0 mm 2 m/s 760 mmHg 80%
01:00 +8°C° 0 mm 2 m/s 760 mmHg 81%
02:00 +7°C° 0 mm 2 m/s 760 mmHg 82%
03:00 +7°C° 0 mm 2 m/s 760 mmHg 83%
04:00 +7°C° 0 mm 2 m/s 760 mmHg 84%
05:00 +6°C° 0 mm 2 m/s 760 mmHg 84%
06:00 +6°C° 0 mm 2 m/s 760 mmHg 83%
07:00 +6°C° 0 mm 2 m/s 760 mmHg 83%
08:00 +7°C° 0 mm 2 m/s 759 mmHg 77%
09:00 +9°C° 0 mm 3 m/s 759 mmHg 71%
10:00 +10°C° 0 mm 3 m/s 759 mmHg 65%
11:00 +12°C° 0 mm 3 m/s 758 mmHg 61%
12:00 +13°C° 0 mm 3 m/s 758 mmHg 57%
13:00 +14°C° 0 mm 3 m/s 758 mmHg 53%
14:00 +14°C° 0 mm 3 m/s 758 mmHg 55%
15:00 +14°C° 0 mm 3 m/s 757 mmHg 57%
16:00 +15°C° 0 mm 2 m/s 756 mmHg 59%
17:00 +12°C° 0 mm 3 m/s 757 mmHg 64%
18:00 +11°C° 0 mm 3 m/s 757 mmHg 69%
19:00 +10°C° 0 mm 3 m/s 757 mmHg 74%
20:00 +10°C° 0 mm 3 m/s 757 mmHg 77%
21:00 +9°C° 0 mm 3 m/s 757 mmHg 79%
22:00 +7°C° 0 mm 4 m/s 757 mmHg 82%
23:00 +7°C° 0 mm 4 m/s 757 mmHg 84%

Poimâine, 26 Februarie, Vineri

Timp Temperatura Precipitaţii Vânt Presiune Umiditate
00:00 +7°C° 0 mm 3 m/s 757 mmHg 85%
01:00 +7°C° 0 mm 3 m/s 757 mmHg 87%
02:00 +7°C° 0 mm 3 m/s 757 mmHg 89%
03:00 +5°C° 0 mm 3 m/s 757 mmHg 91%
04:00 +5°C° 0 mm 3 m/s 757 mmHg 93%
05:00 +5°C° 0 mm 3 m/s 757 mmHg 94%
06:00 +4°C° 0 mm 3 m/s 757 mmHg 95%
07:00 +4°C° 0 mm 3 m/s 757 mmHg 96%
08:00 +5°C° 0 mm 3 m/s 757 mmHg 93%
09:00 +7°C° 0 mm 3 m/s 757 mmHg 90%
10:00 +8°C° 0 mm 3 m/s 757 mmHg 87%
11:00 +8°C° 0.1 mm 3 m/s 757 mmHg 88%
12:00 +8°C° 0.1 mm 3 m/s 757 mmHg 88%
13:00 +8°C° 0.1 mm 3 m/s 757 mmHg 88%
14:00 +6°C° 0.1 mm 4 m/s 757 mmHg 88%
15:00 +6°C° 0.1 mm 4 m/s 756 mmHg 89%
16:00 +6°C° 0.1 mm 4 m/s 756 mmHg 89%
17:00 +5°C° 0 mm 4 m/s 756 mmHg 88%
18:00 +5°C° 0 mm 4 m/s 757 mmHg 88%
19:00 +4°C° 0 mm 4 m/s 757 mmHg 87%
20:00 +4°C° 0 mm 4 m/s 757 mmHg 87%
21:00 +3°C° 0 mm 4 m/s 757 mmHg 87%
22:00 +3°C° 0 mm 4 m/s 757 mmHg 87%
23:00 +1°C° 0 mm 4 m/s 757 mmHg 87%

27 Februarie, Sâmbătă

Timp Temperatura Precipitaţii Vânt Presiune Umiditate
00:00 +1°C° 0 mm 4 m/s 757 mmHg 87%
01:00 +1°C° 0 mm 4 m/s 757 mmHg 87%
02:00 0°C° 0 mm 4 m/s 757 mmHg 89%
03:00 0°C° 0 mm 5 m/s 757 mmHg 90%
04:00 0°C° 0 mm 5 m/s 757 mmHg 92%
05:00 0°C° 0 mm 5 m/s 757 mmHg 91%
06:00 0°C° 0 mm 5 m/s 757 mmHg 90%
07:00 +1°C° 0 mm 5 m/s 758 mmHg 89%
08:00 +1°C° 0 mm 5 m/s 758 mmHg 87%
09:00 +1°C° 0 mm 6 m/s 758 mmHg 85%
10:00 +1°C° 0 mm 6 m/s 758 mmHg 84%
11:00 +1°C° 0 mm 6 m/s 759 mmHg 82%
12:00 +2°C° 0 mm 6 m/s 759 mmHg 80%
13:00 +2°C° 0 mm 6 m/s 759 mmHg 78%
14:00 +2°C° 0 mm 5 m/s 759 mmHg 77%
15:00 +2°C° 0 mm 5 m/s 760 mmHg 77%
16:00 +4°C° 0 mm 4 m/s 760 mmHg 76%
17:00 +3°C° 0 mm 4 m/s 760 mmHg 79%
18:00 +3°C° 0 mm 3 m/s 761 mmHg 82%
19:00 +2°C° 0 mm 3 m/s 761 mmHg 85%
20:00 +2°C° 0 mm 2 m/s 761 mmHg 86%
21:00 +2°C° 0 mm 2 m/s 762 mmHg 88%
22:00 +1°C° 0 mm 2 m/s 762 mmHg 89%
23:00 +1°C° 0 mm 2 m/s 762 mmHg 89%

28 Februarie, Duminică

Timp Temperatura Precipitaţii Vânt Presiune Umiditate
00:00 +1°C° 0 mm 2 m/s 762 mmHg 89%
01:00 -1°C° 0 mm 2 m/s 763 mmHg 89%
02:00 -1°C° 0 mm 2 m/s 762 mmHg 89%
03:00 -1°C° 0 mm 2 m/s 762 mmHg 89%
04:00 -1°C° 0 mm 2 m/s 762 mmHg 88%
05:00 -1°C° 0 mm 2 m/s 762 mmHg 88%
06:00 -1°C° 0 mm 2 m/s 762 mmHg 88%
07:00 -1°C° 0 mm 2 m/s 763 mmHg 88%
08:00 +1°C° 0 mm 2 m/s 763 mmHg 82%
09:00 +3°C° 0 mm 2 m/s 763 mmHg 76%
10:00 +4°C° 0 mm 2 m/s 763 mmHg 70%
11:00 +5°C° 0 mm 2 m/s 763 mmHg 66%
12:00 +6°C° 0 mm 2 m/s 763 mmHg 61%
13:00 +6°C° 0 mm 2 m/s 763 mmHg 56%
14:00 +6°C° 0 mm 2 m/s 762 mmHg 58%
15:00 +6°C° 0 mm 2 m/s 762 mmHg 59%
16:00 +6°C° 0 mm 2 m/s 762 mmHg 60%
17:00 +5°C° 0 mm 2 m/s 762 mmHg 65%
18:00 +5°C° 0 mm 1 m/s 762 mmHg 70%
19:00 +4°C° 0 mm 1 m/s 762 mmHg 74%
20:00 +3°C° 0 mm 1 m/s 762 mmHg 76%
21:00 +3°C° 0 mm 1 m/s 762 mmHg 78%
22:00 +2°C° 0 mm 1 m/s 762 mmHg 80%
23:00 +2°C° 0 mm 1 m/s 763 mmHg 80%

1 Martie, Luni

Timp Temperatura Precipitaţii Vânt Presiune Umiditate
00:00 +2°C° 0 mm 1 m/s 763 mmHg 80%
01:00 +2°C° 0 mm 1 m/s 763 mmHg 81%
02:00 +2°C° 0 mm 1 m/s 763 mmHg 80%
03:00 +2°C° 0 mm 1 m/s 763 mmHg 79%
04:00 +2°C° 0 mm 1 m/s 763 mmHg 78%
05:00 +2°C° 0 mm 1 m/s 763 mmHg 77%
06:00 +1°C° 0 mm 0 m/s 763 mmHg 77%
07:00 +1°C° 0 mm 0 m/s 763 mmHg 76%
08:00 +2°C° 0 mm 0 m/s 763 mmHg 71%
09:00 +3°C° 0 mm 0 m/s 764 mmHg 66%
10:00 +5°C° 0 mm 0 m/s 764 mmHg 60%
11:00 +5°C° 0 mm 0 m/s 764 mmHg 57%
12:00 +6°C° 0 mm 0 m/s 764 mmHg 55%
13:00 +7°C° 0 mm 0 m/s 764 mmHg 52%
14:00 +7°C° 0 mm 0 m/s 764 mmHg 53%
15:00 +7°C° 0 mm 0 m/s 764 mmHg 55%
16:00 +8°C° 0 mm 1 m/s 764 mmHg 57%
17:00 +7°C° 0 mm 1 m/s 764 mmHg 61%
18:00 +6°C° 0 mm 1 m/s 764 mmHg 65%
19:00 +4°C° 0 mm 2 m/s 764 mmHg 69%
20:00 +3°C° 0 mm 2 m/s 764 mmHg 71%
21:00 +3°C° 0 mm 2 m/s 764 mmHg 73%
22:00 +2°C° 0 mm 2 m/s 765 mmHg 75%
23:00 +2°C° 0 mm 2 m/s 765 mmHg 76%
Arată mai mult

Formular de consimțământ

Meteoprog și furnizorii noștri de servicii pot stoca și accesa date personale, precum cookies, identificatori de dispozitiv sau alte tehnologii similare pe dispozitivul dumneavoastră și procesa astfel de date pentru a personaliza conținutul și reclamele, dar și pentru a oferi caracteristici de social media și pentru a analiza traficul.

  • Stocarea și/sau accesarea informațiilor pe dispozitivul dumneavoastră

    Cookies, identificatori de dispozitiv sau alte informații pot fi stocate sau accesate pe dispozitiv în scopurile indicate mai sus.

  • Reclame și conținut personalizat, evaluarea reclamelor și a conținutului, informații despre audiențe și dezvoltarea produselor

    Reclamele și conținutul pot fi personalizate pe baza unui profil. Pot fi adăugate date suplimentare pentru a personaliza mai bine reclamele și conținutul. Performanța reclamelor și conținutului poate fi măsurată. Pot fi obținute informații despre utilizatorii care au văzut reclamele și conținutul. Aceste date pot fi utilizate pentru a dezvolta sau îmbunătăți experiența utilizatorilor, sistemele și software-ul.

Dând clic pe ‘Sunt de acord’, permiteți utilizarea cookie-urilor menționate, a identificatorilor de dispozitiv, balizelor web sau altor tehnologii similare. Setările pot fi modificate din browser-ul dispozitivului dumneavoastră.

În anumite scopuri, interesele legitime pot prima asupra consimțământului. Puteți citi mai multe informații în acest sens în Politica privind Confidențialitatea Datelor și Cookie.